DIRECTV 11

Last updated on Thu Oct 30 2025 00:02:47 GMT+0000 (Coordinated Universal Time)

1 32729U 08013A 25302.49917278 -.00000116 00000+0 00000+0 0 9991 2 32729 0.0087 130.2764 0000338 9.5999 338.7506 1.00274693 43289
UTC large
Height (km)
Speed (km/s)
/
Latitude / Longitude
Inclination (degrees)
Orbital Period (minutes)
Azimuth
Elevation
Range (km)
Doppler Factor

Next 0 passes for location: London (51.5072 / 0.1276)

Sorry there are no passes over London.